Location: Unspecified
(0.0000°N, 0.0000°E)
Time: 16:21:36
(UTC+00:00)

Vanguard 3 - Visible Passes

Search period start: 21 January 2018 00:00
Search period end: 31 January 2018 00:00
Orbit: 508 x 3264 km, 33.4° (Epoch: 20 January)

Date Brightness Start Highest point End Pass type
(mag) Time Alt. Az. Time Alt. Az. Time Alt. Az.
21 Jan 11.4 01:54:42 12° NNE 01:54:42 12° NNE 01:56:31 10° NNE visible
21 Jan 11.1 03:59:16 15° NNW 04:08:51 21° NNE 04:21:26 10° ENE visible
21 Jan 7.8 19:50:20 10° SW 19:55:40 61° SE 19:57:43 46° E visible
21 Jan 10.4 22:02:00 10° W 22:02:18 11° W 22:02:18 11° W visible
22 Jan 11.1 02:49:26 17° N 02:49:30 17° N 03:00:56 10° NE visible
22 Jan 10.9 04:55:16 10° NNW 05:11:41 31° NNE 05:25:18 10° E visible
22 Jan 8.6 18:38:30 10° SSW 18:42:20 24° SE 18:47:44 10° E visible
22 Jan 8.5 20:48:08 10° WSW 20:52:46 49° WNW 20:52:46 49° WNW visible
23 Jan 11.5 01:39:39 10° NNE 01:39:39 10° NNE 01:39:58 10° NNE visible
23 Jan 11.0 03:44:13 17° NNW 03:53:05 23° NNE 04:06:36 10° ENE visible
23 Jan 7.4 19:35:06 10° SW 19:40:04 77° SE 19:43:14 36° ENE visible
23 Jan 10.3 21:47:24 10° W 21:47:49 12° WNW 21:47:49 12° WNW visible
24 Jan 11.1 02:34:27 18° NNE 02:34:27 18° NNE 02:45:40 10° NE visible
24 Jan 10.8 04:39:01 11° NNW 04:55:33 35° NNE 05:10:14 10° E visible
24 Jan 8.5 20:33:16 10° W 20:38:20 42° NW 20:38:20 42° NW visible
25 Jan 10.9 03:29:17 20° N 03:37:10 26° NNE 03:51:36 10° ENE visible
25 Jan 10.4 05:37:28 10° NW 05:56:53 55° NNE 06:11:24 10° ESE visible
25 Jan 7.2 19:19:58 10° WSW 19:24:35 80° NW 19:28:51 25° NE visible
25 Jan 10.2 21:33:04 10° WNW 21:33:27 11° WNW 21:33:27 11° WNW visible
26 Jan 11.1 02:19:35 19° NNE 02:19:35 19° NNE 02:30:28 10° NE visible
26 Jan 10.7 04:24:10 16° NNW 04:39:15 40° NNE 04:54:58 10° E visible
26 Jan 8.8 20:18:34 10° W 20:23:26 31° NNW 20:24:00 30° NNW visible
27 Jan 10.8 03:14:31 24° N 03:21:06 28° NNE 03:36:25 10° ENE visible
27 Jan 10.3 05:20:30 10° NW 05:40:20 62° NE 05:55:51 10° ESE visible
27 Jan 7.5 19:04:57 10° WSW 19:09:12 57° NNW 19:14:32 15° NE visible
28 Jan 11.1 02:04:55 19° NNE 02:04:55 19° NNE 02:15:15 10° ENE visible
28 Jan 10.6 04:09:30 21° NNW 04:22:46 45° NNE 04:39:29 10° E visible
28 Jan 9.1 20:04:09 10° WNW 20:08:14 22° NNW 20:09:41 20° N visible
29 Jan 10.7 02:59:55 28° N 03:04:52 31° NNE 03:21:03 10° E visible
29 Jan 10.2 05:04:31 12° NW 05:23:36 70° NE 05:40:08 10° ESE visible
29 Jan 7.9 18:50:03 10° W 18:53:55 38° NNW 18:59:36 10° NE visible
30 Jan 11.1 01:50:23 20° NE 01:50:23 20° NE 01:59:57 10° ENE visible
30 Jan 10.5 03:54:59 28° NNW 04:06:08 50° NE 04:23:47 10° ESE visible
30 Jan 9.4 19:50:10 10° NW 19:53:06 15° NNW 19:55:23 13° N visible
